Location: Unspecified
(0.0000°N, 0.0000°E)
Time: 06:27:41
(UTC+02:00)

Cosmos 1072 Rocket - Visible Passes

Search period start: 23 October 2017 00:00
Search period end: 01 November 2017 23:00
Orbit: 948 x 1009 km, 82.9° (Epoch: 22 October)

Date Brightness Start Highest point End Pass type
(mag) Time Alt. Az. Time Alt. Az. Time Alt. Az.
30 Oct 7.0 21:28:20 10° S 21:28:23 10° S 21:28:23 10° S visible
31 Oct 7.1 21:55:05 10° SSW 21:55:15 11° SSW 21:55:15 11° SSW visible
01 Nov 6.4 20:36:23 10° SSE 20:37:24 15° SSE 20:37:24 15° SSE visible
